QPF
0.00 0.00 0.00 0.00 0.00 0.00 0.00 0.00 0.00 0.01 0.00 0.01 0.02 0.04 0.03 0.03 0.04 0.04 0.05 0.05 0.06 0.05 0.05 0.03 0.01 0.01 0.01 0.01 0.01 0.00 0.00 0.00 0.00 0.00 0.00 0.00 0.00 0.00 0.00 0.00 0.00 0.00 0.00 0.00
0.00 0.00 0.00 0.00 0.00 0.00 0.00 0.01 0.01 0.00 0.00 0.01 0.02 0.05 0.04 0.05 0.05 0.06 0.07 0.08 0.06 0.07 0.08 0.04 0.01 0.00 0.00 0.00 0.00 0.00 0.00 0.00 0.00 0.00 0.00 0.00 0.00 0.00 0.00 0.00 0.00 0.00 0.00 0.00
0.00 0.00 0.00 0.00 0.00 0.00 0.00 0.01 0.01 0.00 0.00 0.01 0.03 0.06 0.07 0.07 0.07 0.05 0.04 0.05 0.07 0.06 0.05 0.03 0.01 0.00 0.00 0.00 0.00 0.00 0.01 0.01 0.01 0.01 0.00 0.00 0.00 0.00 0.00 0.00 0.00 0.00 0.00 0.00
0.00 0.00 0.00 0.00 0.00 0.00 0.00 0.00 0.00 0.00 0.00 0.01 0.02 0.06 0.05 0.06 0.06 0.05 0.05 0.05 0.04 0.02 0.01 0.01 0.00 0.00 0.00 0.00 0.00 0.01 0.01 0.01 0.01 0.00 0.00 0.00 0.00 0.00 0.00 0.00 0.00 0.00 0.00 0.00
0.00 0.00 0.00 0.00 0.00 0.00 0.00 0.00 0.00 0.00 0.01 0.01 0.01 0.02 0.02 0.02 0.04 0.04 0.04 0.04 0.02 0.01 0.00 0.00 0.00 0.00 0.00 0.00 0.00 0.00 0.00 0.01 0.01 0.00 0.00 0.00 0.00 0.00 0.00 0.00 0.00 0.00 0.00 0.00
0.00 0.00 0.00 0.00 0.00 0.00 0.00 0.00 0.00 0.00 0.00 0.01 0.01 0.01 0.01 0.01 0.01 0.01 0.01 0.01 0.01 0.00 0.00 0.00 0.00 0.00 0.00 0.00 0.00 0.00 0.00 0.01 0.00 0.00 0.00 0.00 0.00 0.00 0.00 0.00 0.00 0.00 0.00 0.00
0.00 0.00 0.00 0.00 0.00 0.00 0.00 0.00 0.00 0.00 0.01 0.01 0.00 0.00 0.00 0.00 0.00 0.00 0.00 0.00 0.00 0.00 0.00 0.00 0.00 0.00 0.00 0.00 0.00 0.00 0.00 0.00 0.00 0.00 0.00 0.00 0.00 0.00 0.00 0.00 0.00 0.00 0.00 0.00
0.00 0.00 0.00 0.00 0.00 0.00 0.00 0.00 0.01 0.01 0.01 0.00 0.00 0.00 0.00 0.00 0.00 0.00 0.00 0.00 0.00 0.00 0.00 0.00 0.00 0.00 0.00 0.00 0.00 0.00 0.00 0.00 0.00 0.00 0.00 0.00 0.00 0.00 0.00 0.00 0.00 0.00 0.00 0.00
0.00 0.00 0.00 0.00 0.00 0.00 0.00 0.00 0.00 0.00 0.00 0.00 0.00 0.00 0.00 0.00 0.00 0.00 0.00 0.00 0.00 0.00 0.00 0.00 0.00 0.00 0.00 0.00 0.00 0.00 0.00 0.00 0.00 0.00 0.00 0.00 0.00 0.00 0.00 0.00 0.00 0.00 0.00 0.00
0.00 0.00 0.00 0.00 0.00 0.00 0.00 0.00 0.00 0.00 0.00 0.00 0.00 0.00 0.00 0.00 0.00 0.00 0.00 0.00 0.00 0.00 0.00 0.00 0.00 0.00 0.00 0.00 0.00 0.00 0.00 0.00 0.00 0.00 0.00 0.00 0.00 0.00 0.00 0.00 0.00 0.00 0.00 0.00
0.00 0.00 0.00 0.00 0.00 0.00 0.00 0.00 0.00 0.00 0.00 0.00 0.00 0.00 0.00 0.00 0.00 0.00 0.00 0.00 0.00 0.00 0.00 0.00 0.00 0.00 0.00 0.00 0.00 0.00 0.00 0.00 0.00 0.00 0.00 0.00 0.00 0.00 0.00 0.00 0.00 0.00 0.00 0.00
0.00 0.00 0.00 0.00 0.00 0.00 0.00 0.00 0.00 0.00 0.00 0.00 0.00 0.00 0.00 0.00 0.00 0.00 0.00 0.00 0.00 0.00 0.00 0.00 0.00 0.00 0.00 0.00 0.00 0.00 0.00 0.00 0.00 0.00 0.00 0.00 0.00 0.00 0.00 0.00 0.00 0.00 0.00 0.00
0.00 0.00 0.00 0.00 0.00 0.00 0.00 0.00 0.00 0.00 0.00 0.00 0.00 0.00 0.00 0.00 0.00 0.00 0.00 0.00 0.00 0.00 0.00 0.00 0.00 0.00 0.00 0.00 0.00 0.00 0.00 0.00 0.00 0.00 0.00 0.00 0.00 0.00 0.00 0.00 0.00 0.00 0.00 0.00
0.00 0.00 0.00 0.00 0.00 0.00 0.00 0.00 0.00 0.00 0.00 0.00 0.00 0.00 0.00 0.00 0.00 0.00 0.00 0.00 0.00 0.00 0.00 0.00 0.00 0.00 0.00 0.00 0.00 0.00 0.00 0.00 0.00 0.00 0.00 0.00 0.00 0.00 0.00 0.00 0.00 0.00 0.00 0.00
0.00 0.00 0.00 0.00 0.00 0.00 0.00 0.00 0.00 0.00 0.00 0.00 0.00 0.00 0.00 0.00 0.00 0.00 0.00 0.00 0.00 0.00 0.00 0.00 0.00 0.00 0.00 0.00 0.00 0.00 0.00 0.00 0.00 0.00 0.00 0.00 0.00 0.00 0.00 0.00 0.00 0.00 0.00 0.00
0.00 0.00 0.00 0.00 0.00 0.00 0.00 0.00 0.00 0.00 0.00 0.00 0.00 0.00 0.00 0.00 0.00 0.00 0.00 0.00 0.00 0.00 0.00 0.00 0.00 0.00 0.00 0.00 0.00 0.00 0.00 0.00 0.00 0.00 0.00 0.00 0.00 0.00 0.00 0.00 0.00 0.00 0.00 0.00
0.00 0.00 0.00 0.00 0.00 0.00 0.00 0.00 0.00 0.00 0.00 0.00 0.00 0.00 0.00 0.00 0.00 0.00 0.00 0.00 0.00 0.00 0.00 0.00 0.00 0.00 0.00 0.00 0.00 0.00 0.00 0.00 0.00 0.00 0.00 0.00 0.00 0.00 0.00 0.00 0.00 0.00 0.00 0.00
0.00 0.00 0.00 0.00 0.00 0.00 0.00 0.00 0.00 0.00 0.00 0.00 0.00 0.00 0.00 0.00 0.00 0.00 0.00 0.00 0.00 0.00 0.00 0.00 0.00 0.00 0.00 0.00 0.00 0.00 0.00 0.00 0.00 0.00 0.00 0.00 0.00 0.00 0.00 0.00 0.00 0.00 0.00 0.00
0.00 0.00 0.00 0.00 0.00 0.00 0.00 0.00 0.00 0.00 0.00 0.00 0.00 0.00 0.00 0.00 0.00 0.00 0.00 0.00 0.00 0.00 0.00 0.00 0.00 0.00 0.00 0.00 0.00 0.00 0.00 0.00 0.00 0.00 0.00 0.00 0.00 0.00 0.00 0.00 0.00 0.00 0.00 0.00
0.01 0.01 0.01 0.01 0.00 0.00 0.00 0.00 0.00 0.00 0.00 0.00 0.00 0.00 0.00 0.00 0.00 0.00 0.00 0.00 0.00 0.00 0.00 0.00 0.00 0.00 0.00 0.00 0.00 0.00 0.00 0.00 0.00 0.00 0.00 0.00 0.00 0.00 0.00 0.00 0.00 0.00 0.00 0.00
0.00 0.00 0.00 0.00 0.00 0.00 0.00 0.00 0.00 0.00 0.00 0.00 0.00 0.00 0.00 0.00 0.00 0.00 0.00 0.00 0.00 0.00 0.00 0.00 0.00 0.00 0.00 0.00 0.00 0.00 0.00 0.00 0.00 0.00 0.00 0.00 0.00 0.00 0.00 0.00 0.00 0.00 0.00 0.00
0.00 0.00 0.00 0.00 0.00 0.00 0.00 0.00 0.00 0.00 0.00 0.00 0.00 0.00 0.00 0.00 0.00 0.00 0.00 0.00 0.00 0.00 0.00 0.00 0.00 0.00 0.00 0.00 0.00 0.00 0.00 0.00 0.00 0.00 0.00 0.00 0.00 0.00 0.00 0.00 0.00 0.00 0.00 0.00
0.00 0.00 0.00 0.00 0.00 0.00 0.00 0.00 0.00 0.00 0.00 0.00 0.00 0.00 0.00 0.00 0.00 0.00 0.00 0.00 0.00 0.00 0.00 0.00 0.00 0.00 0.00 0.00 0.00 0.00 0.00 0.00 0.00 0.00 0.00 0.00 0.00 0.00 0.00 0.00 0.00 0.00 0.00 0.00
0.00 0.00 0.00 0.00 0.00 0.00 0.00 0.00 0.00 0.00 0.00 0.00 0.00 0.00 0.00 0.00 0.00 0.00 0.00 0.00 0.00 0.00 0.00 0.00 0.00 0.00 0.00 0.00 0.00 0.00 0.00 0.00 0.00 0.00 0.00 0.00 0.00 0.00 0.00 0.00 0.00 0.00 0.00 0.00
0.00 0.00 0.00 0.00 0.00 0.00 0.00 0.00 0.00 0.00 0.00 0.00 0.00 0.00 0.00 0.00 0.00 0.00 0.00 0.00 0.00 0.00 0.00 0.00 0.00 0.00 0.00 0.00 0.00 0.00 0.00 0.00 0.00 0.00 0.00 0.00 0.00 0.00 0.00 0.00 0.00 0.00 0.00 0.00
0.00 0.00 0.00 0.00 0.00 0.00 0.00 0.00 0.00 0.00 0.00 0.00 0.00 0.00 0.00 0.00 0.00 0.00 0.00 0.00 0.00 0.00 0.00 0.00 0.00 0.00 0.00 0.00 0.00 0.00 0.00 0.00 0.00 0.00 0.00 0.00 0.00 0.00 0.00 0.00 0.00 0.00 0.00 0.00
MSLP
1012.33 1012.66 1012.86 1012.95 1012.98 1012.99 1013.04 1013.16 1013.37 1013.66 1014.01 1014.39 1014.76 1015.08 1015.35 1015.55 1015.68 1015.77 1015.81 1015.83 1015.83 1015.82 1015.81 1015.79 1015.79 1015.80 1015.84 1015.92 1016.04 1016.21 1016.41 1016.65 1016.89 1017.12 1017.33 1017.49 1017.61 1017.67 1017.67 1017.62 1017.52 1017.38 1017.21 1017.01
1012.39 1012.66 1012.82 1012.89 1012.91 1012.95 1013.04 1013.23 1013.51 1013.88 1014.29 1014.70 1015.09 1015.41 1015.65 1015.80 1015.89 1015.92 1015.92 1015.90 1015.87 1015.84 1015.80 1015.77 1015.74 1015.73 1015.76 1015.84 1015.97 1016.16 1016.40 1016.67 1016.95 1017.21 1017.44 1017.60 1017.70 1017.72 1017.68 1017.60 1017.47 1017.32 1017.16 1016.99
1012.32 1012.54 1012.65 1012.71 1012.75 1012.83 1012.99 1013.27 1013.64 1014.07 1014.53 1014.96 1015.33 1015.61 1015.79 1015.87 1015.88 1015.85 1015.79 1015.73 1015.68 1015.63 1015.59 1015.56 1015.54 1015.55 1015.59 1015.68 1015.83 1016.05 1016.32 1016.63 1016.94 1017.23 1017.47 1017.63 1017.71 1017.72 1017.65 1017.54 1017.40 1017.26 1017.12 1016.99
1012.15 1012.30 1012.38 1012.42 1012.50 1012.65 1012.90 1013.27 1013.73 1014.24 1014.73 1015.16 1015.49 1015.69 1015.78 1015.75 1015.66 1015.53 1015.41 1015.31 1015.23 1015.19 1015.17 1015.17 1015.19 1015.23 1015.30 1015.43 1015.61 1015.86 1016.16 1016.50 1016.84 1017.15 1017.40 1017.57 1017.65 1017.64 1017.57 1017.46 1017.33 1017.20 1017.09 1017.00
1011.93 1012.01 1012.05 1012.10 1012.22 1012.45 1012.80 1013.28 1013.82 1014.39 1014.90 1015.31 1015.57 1015.67 1015.63 1015.47 1015.25 1015.02 1014.82 1014.67 1014.58 1014.56 1014.58 1014.63 1014.70 1014.80 1014.92 1015.09 1015.31 1015.59 1015.91 1016.27 1016.63 1016.96 1017.22 1017.40 1017.49 1017.50 1017.44 1017.34 1017.22 1017.12 1017.04 1016.98
1011.73 1011.74 1011.75 1011.81 1011.98 1012.29 1012.74 1013.30 1013.92 1014.53 1015.05 1015.41 1015.58 1015.56 1015.38 1015.07 1014.71 1014.37 1014.08 1013.89 1013.80 1013.80 1013.87 1013.99 1014.13 1014.30 1014.48 1014.70 1014.95 1015.25 1015.59 1015.96 1016.33 1016.66 1016.94 1017.14 1017.24 1017.27 1017.23 1017.15 1017.06 1016.99 1016.93 1016.90
1011.60 1011.56 1011.54 1011.61 1011.83 1012.20 1012.73 1013.36 1014.04 1014.66 1015.16 1015.45 1015.53 1015.38 1015.04 1014.59 1014.10 1013.65 1013.29 1013.06 1012.97 1013.00 1013.14 1013.33 1013.55 1013.79 1014.03 1014.29 1014.57 1014.89 1015.23 1015.59 1015.96 1016.29 1016.57 1016.78 1016.91 1016.95 1016.93 1016.88 1016.81 1016.76 1016.72 1016.69
1011.59 1011.50 1011.46 1011.54 1011.79 1012.20 1012.78 1013.45 1014.14 1014.75 1015.20 1015.42 1015.39 1015.12 1014.66 1014.08 1013.47 1012.93 1012.52 1012.27 1012.20 1012.28 1012.47 1012.74 1013.04 1013.34 1013.64 1013.93 1014.23 1014.54 1014.88 1015.22 1015.57 1015.89 1016.16 1016.37 1016.50 1016.56 1016.56 1016.52 1016.46 1016.41 1016.37 1016.35
1011.66 1011.54 1011.50 1011.59 1011.85 1012.28 1012.86 1013.53 1014.19 1014.76 1015.14 1015.29 1015.16 1014.79 1014.22 1013.55 1012.88 1012.29 1011.85 1011.61 1011.56 1011.68 1011.94 1012.28 1012.64 1013.00 1013.35 1013.66 1013.97 1014.27 1014.57 1014.89 1015.20 1015.49 1015.74 1015.93 1016.06 1016.11 1016.11 1016.07 1016.01 1015.95 1015.90 1015.87
1011.77 1011.66 1011.62 1011.71 1011.96 1012.37 1012.92 1013.54 1014.14 1014.64 1014.94 1015.00 1014.80 1014.36 1013.74 1013.03 1012.33 1011.74 1011.32 1011.10 1011.09 1011.27 1011.58 1011.98 1012.40 1012.80 1013.17 1013.50 1013.79 1014.07 1014.34 1014.60 1014.87 1015.12 1015.33 1015.50 1015.60 1015.64 1015.62 1015.57 1015.49 1015.41 1015.34 1015.28
1011.85 1011.77 1011.75 1011.84 1012.06 1012.43 1012.90 1013.44 1013.94 1014.34 1014.56 1014.55 1014.30 1013.83 1013.21 1012.51 1011.85 1011.30 1010.92 1010.76 1010.80 1011.03 1011.39 1011.82 1012.27 1012.70 1013.08 1013.40 1013.68 1013.93 1014.15 1014.38 1014.59 1014.79 1014.96 1015.08 1015.15 1015.16 1015.12 1015.04 1014.94 1014.83 1014.74 1014.66
1011.86 1011.83 1011.84 1011.93 1012.12 1012.41 1012.79 1013.20 1013.59 1013.88 1014.01 1013.93 1013.66 1013.20 1012.62 1011.99 1011.41 1010.94 1010.64 1010.54 1010.64 1010.91 1011.30 1011.75 1012.21 1012.64 1013.01 1013.33 1013.58 1013.80 1013.99 1014.16 1014.33 1014.48 1014.60 1014.69 1014.72 1014.70 1014.63 1014.53 1014.40 1014.27 1014.16 1014.07
1011.80 1011.84 1011.89 1011.97 1012.11 1012.32 1012.58 1012.86 1013.11 1013.27 1013.31 1013.19 1012.91 1012.49 1011.99 1011.46 1010.98 1010.61 1010.40 1010.38 1010.53 1010.83 1011.23 1011.68 1012.13 1012.54 1012.90 1013.19 1013.43 1013.62 1013.78 1013.92 1014.05 1014.17 1014.25 1014.30 1014.31 1014.26 1014.17 1014.05 1013.91 1013.77 1013.65 1013.55
1011.72 1011.82 1011.90 1011.98 1012.07 1012.18 1012.31 1012.44 1012.55 1012.59 1012.54 1012.38 1012.11 1011.74 1011.32 1010.90 1010.54 1010.28 1010.17 1010.21 1010.40 1010.71 1011.10 1011.53 1011.95 1012.34 1012.67 1012.94 1013.16 1013.34 1013.49 1013.61 1013.73 1013.82 1013.89 1013.92 1013.90 1013.84 1013.74 1013.61 1013.47 1013.33 1013.21 1013.13
1011.65 1011.82 1011.93 1011.99 1012.02 1012.03 1012.04 1012.03 1011.99 1011.91 1011.77 1011.57 1011.30 1010.98 1010.64 1010.33 1010.07 1009.92 1009.88 1009.97 1010.17 1010.47 1010.84 1011.23 1011.62 1011.97 1012.28 1012.54 1012.76 1012.94 1013.09 1013.22 1013.34 1013.43 1013.49 1013.52 1013.50 1013.43 1013.33 1013.21 1013.07 1012.95 1012.85 1012.77
1011.65 1011.86 1011.98 1012.02 1012.00 1011.92 1011.80 1011.66 1011.49 1011.29 1011.06 1010.81 1010.53 1010.25 1009.98 1009.74 1009.57 1009.49 1009.50 1009.61 1009.82 1010.10 1010.42 1010.77 1011.12 1011.45 1011.74 1012.00 1012.23 1012.43 1012.61 1012.76 1012.90 1013.01 1013.08 1013.11 1013.09 1013.03 1012.94 1012.83 1012.70 1012.59 1012.51 1012.45
1011.72 1011.94 1012.06 1012.08 1012.00 1011.84 1011.62 1011.35 1011.06 1010.76 1010.45 1010.15 1009.85 1009.58 1009.34 1009.15 1009.03 1008.98 1009.02 1009.13 1009.32 1009.57 1009.86 1010.17 1010.49 1010.79 1011.09 1011.36 1011.62 1011.85 1012.07 1012.27 1012.44 1012.58 1012.67 1012.71 1012.70 1012.65 1012.56 1012.45 1012.34 1012.23 1012.15 1012.10
1011.81 1012.02 1012.12 1012.11 1011.99 1011.76 1011.46 1011.11 1010.73 1010.33 1009.95 1009.59 1009.26 1008.97 1008.73 1008.56 1008.45 1008.41 1008.44 1008.54 1008.71 1008.92 1009.18 1009.46 1009.76 1010.07 1010.38 1010.69 1010.99 1011.28 1011.55 1011.80 1012.01 1012.18 1012.29 1012.34 1012.34 1012.28 1012.18 1012.07 1011.94 1011.83 1011.74 1011.68
1011.84 1012.02 1012.10 1012.07 1011.91 1011.65 1011.30 1010.89 1010.44 1009.99 1009.54 1009.13 1008.75 1008.43 1008.17 1007.98 1007.85 1007.80 1007.81 1007.88 1008.02 1008.21 1008.44 1008.71 1009.01 1009.34 1009.68 1010.04 1010.40 1010.75 1011.08 1011.38 1011.64 1011.83 1011.96 1012.01 1012.00 1011.93 1011.81 1011.66 1011.51 1011.38 1011.26 1011.17
1011.73 1011.88 1011.94 1011.89 1011.72 1011.45 1011.09 1010.66 1010.18 1009.69 1009.21 1008.75 1008.33 1007.97 1007.67 1007.44 1007.27 1007.18 1007.16 1007.20 1007.31 1007.48 1007.70 1007.98 1008.30 1008.66 1009.05 1009.46 1009.87 1010.29 1010.67 1011.02 1011.31 1011.52 1011.66 1011.71 1011.67 1011.57 1011.42 1011.23 1011.04 1010.86 1010.70 1010.57
1011.44 1011.56 1011.60 1011.56 1011.41 1011.16 1010.83 1010.41 1009.95 1009.45 1008.95 1008.46 1008.01 1007.60 1007.25 1006.97 1006.76 1006.62 1006.56 1006.57 1006.65 1006.81 1007.03 1007.32 1007.66 1008.05 1008.48 1008.94 1009.41 1009.87 1010.30 1010.68 1010.99 1011.22 1011.35 1011.38 1011.33 1011.19 1010.99 1010.76 1010.52 1010.29 1010.09 1009.92
1010.98 1011.09 1011.14 1011.12 1011.02 1010.82 1010.54 1010.18 1009.76 1009.29 1008.79 1008.29 1007.81 1007.36 1006.97 1006.63 1006.37 1006.18 1006.07 1006.05 1006.10 1006.24 1006.46 1006.76 1007.11 1007.53 1007.99 1008.48 1008.98 1009.47 1009.92 1010.32 1010.64 1010.86 1010.98 1011.00 1010.91 1010.74 1010.51 1010.23 1009.95 1009.67 1009.43 1009.23
1010.45 1010.56 1010.64 1010.67 1010.64 1010.52 1010.32 1010.03 1009.67 1009.24 1008.77 1008.28 1007.78 1007.30 1006.86 1006.47 1006.15 1005.91 1005.76 1005.70 1005.72 1005.84 1006.04 1006.33 1006.68 1007.10 1007.56 1008.05 1008.55 1009.03 1009.48 1009.87 1010.18 1010.40 1010.50 1010.50 1010.40 1010.20 1009.94 1009.64 1009.32 1009.02 1008.76 1008.55
1009.98 1010.12 1010.25 1010.34 1010.38 1010.35 1010.24 1010.04 1009.75 1009.38 1008.94 1008.46 1007.96 1007.45 1006.97 1006.54 1006.17 1005.88 1005.68 1005.57 1005.56 1005.64 1005.81 1006.06 1006.38 1006.76 1007.18 1007.63 1008.09 1008.54 1008.95 1009.31 1009.59 1009.79 1009.87 1009.86 1009.74 1009.54 1009.27 1008.96 1008.65 1008.35 1008.08 1007.87
1009.71 1009.90 1010.09 1010.25 1010.37 1010.42 1010.39 1010.27 1010.04 1009.72 1009.32 1008.86 1008.35 1007.83 1007.32 1006.85 1006.44 1006.10 1005.85 1005.70 1005.63 1005.66 1005.77 1005.96 1006.22 1006.52 1006.87 1007.24 1007.62 1008.00 1008.34 1008.64 1008.87 1009.03 1009.10 1009.07 1008.96 1008.76 1008.51 1008.22 1007.92 1007.64 1007.40 1007.21
1009.75 1009.99 1010.24 1010.46 1010.64 1010.76 1010.79 1010.72 1010.55 1010.27 1009.89 1009.44 1008.94 1008.41 1007.88 1007.38 1006.94 1006.57 1006.28 1006.07 1005.95 1005.92 1005.95 1006.06 1006.21 1006.41 1006.65 1006.90 1007.17 1007.43 1007.68 1007.89 1008.06 1008.18 1008.22 1008.18 1008.08 1007.90 1007.68 1007.42 1007.16 1006.91 1006.71 1006.56
Thickness
5780 5772 5771 5772 5773 5769 5765 5759 5753 5748 5754 5753 5750 5746 5745 5745 5743 5740 5737 5735 5734 5734 5737 5736 5735 5734 5732 5729 5726 5724 5722 5718 5715 5714 5712 5709 5707 5704 5702 5699 5693 5691 5689 5688
5776 5773 5780 5780 5775 5768 5763 5755 5750 5746 5750 5748 5744 5741 5741 5739 5737 5737 5734 5731 5731 5732 5731 5730 5731 5731 5730 5727 5725 5722 5718 5716 5712 5710 5706 5703 5700 5699 5696 5692 5687 5684 5683 5681
5773 5780 5783 5776 5769 5763 5762 5758 5753 5745 5743 5745 5739 5729 5730 5733 5734 5733 5733 5733 5733 5730 5729 5728 5728 5729 5729 5727 5724 5723 5718 5714 5710 5706 5704 5700 5696 5694 5693 5689 5686 5681 5677 5676
5782 5785 5779 5773 5769 5766 5758 5764 5758 5748 5741 5738 5735 5720 5726 5730 5728 5728 5730 5730 5730 5731 5731 5731 5731 5730 5730 5729 5727 5722 5717 5712 5708 5703 5701 5697 5692 5689 5686 5683 5682 5677 5674 5672
5780 5781 5776 5770 5769 5770 5761 5766 5760 5753 5747 5741 5739 5732 5731 5733 5726 5729 5733 5734 5736 5737 5737 5735 5735 5734 5733 5732 5728 5723 5717 5711 5706 5702 5697 5692 5690 5688 5686 5681 5677 5674 5674 5670
5783 5788 5784 5777 5775 5773 5765 5760 5755 5755 5756 5736 5735 5733 5730 5738 5737 5738 5740 5740 5741 5742 5741 5739 5739 5737 5734 5732 5728 5723 5716 5710 5705 5700 5696 5690 5686 5682 5679 5675 5674 5673 5673 5670
5774 5779 5784 5783 5768 5765 5763 5754 5745 5741 5740 5735 5738 5736 5737 5748 5751 5749 5746 5745 5746 5745 5743 5741 5738 5736 5733 5730 5727 5723 5715 5709 5704 5699 5694 5690 5685 5680 5676 5673 5673 5669 5669 5668
5764 5765 5778 5780 5774 5766 5764 5760 5740 5727 5733 5741 5738 5736 5747 5756 5757 5756 5755 5753 5750 5748 5747 5744 5742 5739 5734 5731 5726 5721 5714 5708 5703 5698 5693 5688 5683 5681 5679 5674 5669 5667 5665 5663
5768 5764 5780 5781 5782 5775 5762 5763 5766 5751 5745 5739 5741 5744 5753 5756 5754 5754 5754 5752 5750 5750 5749 5746 5743 5739 5735 5730 5725 5720 5713 5707 5702 5698 5692 5686 5682 5678 5675 5670 5667 5666 5662 5659
5775 5761 5775 5776 5778 5771 5773 5767 5758 5750 5730 5730 5736 5739 5744 5748 5751 5754 5753 5753 5753 5752 5750 5747 5744 5739 5735 5730 5724 5718 5712 5706 5701 5696 5690 5687 5681 5676 5671 5668 5664 5660 5657 5653
5777 5760 5767 5770 5764 5766 5759 5757 5756 5755 5746 5732 5730 5741 5762 5759 5760 5758 5758 5758 5757 5754 5752 5747 5742 5738 5733 5728 5722 5715 5710 5704 5698 5693 5688 5682 5678 5674 5670 5665 5661 5657 5653 5649
5773 5767 5759 5766 5775 5776 5771 5764 5757 5743 5738 5740 5738 5747 5772 5769 5769 5766 5764 5763 5761 5756 5752 5747 5741 5735 5730 5726 5721 5714 5708 5703 5697 5692 5685 5680 5675 5671 5666 5663 5659 5654 5649 5645
5768 5757 5746 5750 5755 5764 5764 5762 5761 5755 5746 5742 5737 5749 5769 5769 5766 5766 5764 5762 5758 5752 5748 5744 5738 5733 5728 5724 5719 5714 5707 5702 5697 5691 5683 5678 5673 5669 5664 5659 5655 5650 5646 5641
5768 5758 5749 5743 5750 5761 5758 5759 5758 5751 5746 5744 5746 5752 5764 5764 5763 5765 5763 5760 5756 5749 5744 5740 5735 5730 5726 5721 5715 5710 5705 5700 5694 5688 5682 5675 5670 5666 5661 5656 5651 5646 5642 5637
5763 5754 5757 5761 5765 5762 5758 5758 5758 5750 5750 5745 5751 5755 5763 5767 5766 5766 5764 5759 5752 5746 5742 5738 5734 5729 5724 5718 5712 5707 5702 5697 5690 5684 5678 5673 5669 5663 5658 5652 5647 5642 5637 5633
5758 5750 5754 5752 5761 5759 5753 5757 5758 5755 5754 5752 5753 5755 5773 5771 5767 5762 5759 5755 5749 5745 5743 5739 5734 5729 5722 5717 5711 5706 5699 5694 5687 5680 5675 5671 5665 5659 5654 5649 5644 5638 5632 5627
5757 5747 5741 5742 5757 5750 5743 5757 5758 5756 5759 5755 5750 5760 5767 5762 5759 5759 5758 5755 5750 5748 5744 5739 5735 5729 5723 5717 5711 5703 5697 5691 5684 5677 5672 5667 5661 5656 5650 5645 5639 5633 5627 5621
5749 5743 5742 5742 5740 5720 5753 5773 5766 5758 5760 5764 5761 5763 5763 5760 5760 5761 5760 5756 5752 5749 5745 5740 5736 5730 5724 5717 5710 5701 5695 5687 5680 5674 5669 5664 5658 5652 5646 5639 5633 5627 5620 5614
5752 5741 5739 5738 5733 5737 5758 5767 5764 5754 5754 5769 5763 5762 5763 5761 5756 5758 5762 5758 5754 5751 5747 5742 5738 5733 5724 5716 5708 5699 5691 5684 5677 5671 5665 5660 5654 5647 5640 5633 5627 5621 5614 5608
5743 5741 5737 5732 5721 5721 5749 5764 5769 5758 5745 5767 5764 5759 5760 5753 5744 5754 5765 5760 5755 5752 5747 5742 5736 5729 5720 5712 5704 5694 5688 5681 5675 5669 5663 5656 5649 5641 5634 5627 5621 5615 5608 5602
5735 5730 5731 5729 5724 5739 5757 5762 5759 5735 5736 5757 5760 5757 5756 5751 5751 5759 5762 5758 5754 5750 5745 5739 5732 5724 5717 5709 5700 5690 5684 5678 5673 5666 5659 5651 5644 5636 5629 5622 5615 5608 5603 5597
5737 5734 5728 5728 5720 5728 5750 5752 5741 5737 5748 5751 5751 5752 5752 5752 5755 5755 5753 5750 5747 5743 5740 5734 5726 5719 5713 5705 5695 5686 5680 5675 5668 5661 5653 5646 5639 5632 5626 5618 5610 5603 5597 5591
5740 5741 5738 5734 5733 5737 5741 5737 5736 5738 5737 5740 5743 5746 5747 5746 5747 5748 5747 5745 5742 5738 5734 5729 5722 5714 5707 5700 5691 5682 5677 5670 5662 5653 5646 5639 5633 5626 5619 5611 5605 5599 5594 5588
5739 5735 5732 5728 5736 5731 5728 5727 5726 5726 5727 5731 5735 5737 5739 5738 5739 5739 5738 5736 5734 5731 5727 5723 5716 5708 5701 5694 5687 5679 5672 5664 5655 5647 5640 5634 5627 5621 5615 5607 5601 5596 5591 5586
5726 5726 5724 5720 5724 5723 5716 5710 5712 5714 5717 5720 5723 5725 5726 5726 5725 5725 5725 5723 5722 5720 5718 5714 5708 5701 5695 5688 5680 5673 5665 5656 5648 5641 5635 5629 5624 5618 5610 5603 5597 5591 5585 5580
5716 5714 5711 5711 5705 5705 5697 5699 5702 5702 5704 5706 5707 5709 5711 5711 5710 5711 5710 5709 5708 5706 5704 5701 5696 5692 5686 5679 5672 5665 5658 5649 5641 5636 5630 5625 5620 5613 5607 5600 5595 5589 5580 5573